TimeMDT,TemperatureF,Dew PointF,Humidity,Sea Level PressureIn,VisibilityMPH,Wind Direction,Wind SpeedMPH,Gust SpeedMPH,PrecipitationIn,Events,Conditions,WindDirDegrees,DateUTC
12:53 AM,37.0,19.9,50,30.19,10.0,South,11.5,-,N/A,,Clear,180,2013-04-19 06:53:00
1:53 AM,37.9,19.9,48,30.17,10.0,South,10.4,-,N/A,,Clear,190,2013-04-19 07:53:00
2:53 AM,37.9,21.0,51,30.16,10.0,SSW,12.7,-,N/A,,Clear,210,2013-04-19 08:53:00
3:53 AM,36.0,21.9,57,30.15,10.0,SSW,10.4,-,N/A,,Clear,200,2013-04-19 09:53:00
4:53 AM,35.1,21.9,59,30.14,10.0,SSW,9.2,-,N/A,,Partly Cloudy,200,2013-04-19 10:53:00
5:53 AM,34.0,23.0,64,30.15,10.0,SSW,8.1,-,N/A,,Overcast,210,2013-04-19 11:53:00
6:53 AM,34.0,23.0,64,30.14,10.0,South,10.4,-,N/A,,Overcast,190,2013-04-19 12:53:00
7:53 AM,36.0,24.1,62,30.15,10.0,SSW,11.5,18.4,N/A,,Mostly Cloudy,200,2013-04-19 13:53:00
8:53 AM,39.0,24.1,55,30.13,10.0,SSW,19.6,25.3,N/A,,Overcast,210,2013-04-19 14:53:00
9:53 AM,39.9,25.0,55,30.14,10.0,SSW,15.0,-,N/A,,Overcast,210,2013-04-19 15:53:00
10:53 AM,42.1,26.1,53,30.12,10.0,SSW,9.2,-,N/A,,Overcast,200,2013-04-19 16:53:00
11:53 AM,46.9,28.0,48,30.09,10.0,SW,13.8,21.9,N/A,,Scattered Clouds,220,2013-04-19 17:53:00
12:53 PM,45.0,28.9,53,30.08,10.0,SW,17.3,25.3,N/A,,Overcast,220,2013-04-19 18:53:00
1:53 PM,45.0,28.0,52,30.06,10.0,SSW,13.8,20.7,N/A,,Overcast,210,2013-04-19 19:53:00
2:53 PM,45.0,32.0,60,30.03,10.0,SW,17.3,29.9,0.00,Rain,Light Rain,220,2013-04-19 20:53:00
3:44 PM,44.6,33.8,66,30.01,10.0,SSW,19.6,26.5,0.00,,Overcast,200,2013-04-19 21:44:00
3:53 PM,44.1,35.1,71,30.02,10.0,South,18.4,26.5,0.00,,Overcast,190,2013-04-19 21:53:00
4:53 PM,42.1,36.0,79,30.00,10.0,SSW,17.3,25.3,N/A,,Overcast,200,2013-04-19 22:53:00
5:01 PM,42.8,35.6,76,29.97,10.0,South,15.0,24.2,N/A,,Overcast,190,2013-04-19 23:01:00
5:29 PM,42.8,35.6,76,29.96,10.0,South,13.8,21.9,N/A,,Mostly Cloudy,180,2013-04-19 23:29:00
5:53 PM,44.1,36.0,73,29.97,10.0,South,15.0,21.9,N/A,,Overcast,190,2013-04-19 23:53:00
6:53 PM,42.1,37.9,85,29.95,4.0,South,11.5,-,0.06,Rain,Light Rain,170,2013-04-20 00:53:00
7:53 PM,43.0,39.0,86,29.91,10.0,South,13.8,20.7,0.01,,Overcast,190,2013-04-20 01:53:00
8:53 PM,42.1,39.0,89,29.91,10.0,SSW,15.0,24.2,N/A,,Mostly Cloudy,200,2013-04-20 02:53:00
9:53 PM,41.0,37.9,89,29.93,10.0,SSW,13.8,-,N/A,,Partly Cloudy,200,2013-04-20 03:53:00
10:28 PM,41.0,39.2,93,29.92,10.0,SSW,11.5,-,N/A,,Mostly Cloudy,200,2013-04-20 04:28:00
10:53 PM,41.0,39.0,93,29.94,10.0,SW,12.7,-,N/A,,Overcast,220,2013-04-20 04:53:00
11:44 PM,41.0,37.4,87,29.92,10.0,SW,17.3,26.5,0.06,Rain,Light Rain,220,2013-04-20 05:44:00
11:53 PM,39.9,39.0,97,29.92,10.0,SW,13.8,21.9,0.06,,Overcast,220,2013-04-20 05:53:00